FENTRESS NALF, VA

12:06 PM EDT on May 24, 2017 (GMT -0400)
Fentress Naval Air Landing Field

Weather History for KNFE - June, 2014

Change the Weather History Date:

Tuesday, June 10, 2014

  Actual Average (KNTU) Record (KNTU)
Temperature  
Mean Temperature 86 °F -  
Max Temperature 95 °F 78 °F 98 °F (2008)
Min Temperature 77 °F 62 °F 50 °F (1997)
Cooling Degree Days 21    
Growing Degree Days 36 (Base 50)    
Moisture  
Dew Point 70 °F    
Average Humidity 65    
Maximum Humidity 79    
Minimum Humidity 44    
Precipitation  
Precipitation 0.00 in - - ()
Sea Level Pressure  
Sea Level Pressure 29.91 in    
Wind  
Wind Speed 8 mph (SSW)    
Max Wind Speed 15 mph    
Max Gust Speed 18 mph    
Visibility 10 miles    
Events      
Averages and records for this station are not official NWS values.
T = Trace of Precipitation, MM = Missing Value Source: NWS Daily Summary

Daily Weather History Graph

Daily Weather History Graph

Search for Another Location

Airport or City:

Trip Planner

Search our weather history database for the weather conditions in past years. The results will help you decide how hot, cold, wet, or windy it might be!

Date:

Astronomy

Jun. 10, 2014 Rise Set
Actual Time 5:45 AM EDT 8:22 PM EDT
Civil Twilight 5:14 AM EDT 8:53 PM EDT
Nautical Twilight 4:36 AM EDT 9:31 PM EDT
Astronomical Twilight 3:54 AM EDT 10:13 PM EDT
Moon 5:49 PM EDT (6/10) 3:45 AM EDT (6/10)
Length of Visible Light 15h 38m
Length of Day
14h 37m
Waxing Gibbous, 92% of the Moon is Illuminated
Jun 10
Waxing Gibbous
Jun 13
Full
Jun 19
Last Quarter
Jun 27
New
Jul 5
First Quarter

Hourly Weather History & Observations

Time (EDT) Temp. Heat Index Dew Point Humidity Pressure Visibility Wind Dir Wind Speed Gust Speed Precip Events Conditions
12:37 AM 78.1 °F - 69.1 °F 74% 29.93 in 10.0 mi South 10.4 mph - N/A   Overcast
12:47 AM 78.1 °F - 69.1 °F 74% 29.92 in 10.0 mi South 10.4 mph - N/A   Mostly Cloudy
12:56 AM 77.0 °F - 69.1 °F 76% 29.93 in 10.0 mi South 10.4 mph - N/A   Mostly Cloudy
1:39 AM 77.0 °F - 69.1 °F 76% 29.92 in 10.0 mi South 9.2 mph - N/A   Mostly Cloudy
1:56 AM 77.0 °F - 69.1 °F 76% 29.93 in 10.0 mi South 9.2 mph - N/A   Scattered Clouds
2:13 AM 77.0 °F - 69.1 °F 76% 29.92 in 10.0 mi South 8.1 mph - N/A   Mostly Cloudy
2:31 AM 77.0 °F - 69.1 °F 76% 29.92 in 10.0 mi South 9.2 mph - N/A   Scattered Clouds
2:56 AM 77.0 °F - 70.0 °F 79% 29.92 in 10.0 mi South 9.2 mph - N/A   Mostly Cloudy
3:56 AM 78.1 °F - 71.1 °F 79% 29.91 in 10.0 mi South 9.2 mph - N/A   Scattered Clouds
4:56 AM 78.1 °F - 71.1 °F 79% 29.90 in 10.0 mi South 5.8 mph - N/A   Clear
5:56 AM 77.0 °F - 70.0 °F 79% 29.91 in 10.0 mi SW 4.6 mph - N/A   Mostly Cloudy
6:56 AM 77.0 °F - 69.1 °F 76% 29.93 in 10.0 mi Variable 4.6 mph - N/A   Mostly Cloudy
7:56 AM 77.0 °F - 69.1 °F 76% 29.94 in 10.0 mi South 6.9 mph - N/A   Scattered Clouds
8:56 AM 80.1 °F 83.6 °F 71.1 °F 74% 29.94 in 10.0 mi South 6.9 mph - N/A   Scattered Clouds
9:56 AM 82.9 °F 87.0 °F 70.0 °F 65% 29.94 in 10.0 mi SSW 4.6 mph - N/A   Partly Cloudy
10:56 AM 86.0 °F 91.5 °F 71.1 °F 61% 29.94 in 10.0 mi Variable 5.8 mph - N/A   Mostly Cloudy
11:56 AM 86.0 °F 91.5 °F 71.1 °F 61% 29.92 in 10.0 mi Variable 5.8 mph - N/A   Mostly Cloudy
12:17 PM 89.1 °F 97.0 °F 73.0 °F 59% 29.90 in 10.0 mi SSE 10.4 mph - N/A   Mostly Cloudy
12:24 PM 90.0 °F 97.9 °F 73.0 °F 57% 29.91 in 10.0 mi South 11.5 mph - N/A   Mostly Cloudy
12:35 PM 90.0 °F 97.9 °F 73.0 °F 57% 29.91 in 10.0 mi South 15.0 mph - N/A   Scattered Clouds
12:56 PM 91.0 °F 99.3 °F 73.0 °F 55% 29.92 in 10.0 mi SSW 6.9 mph - N/A   Scattered Clouds
1:56 PM 93.0 °F 101.9 °F 73.0 °F 52% 29.90 in 10.0 mi SW 5.8 mph 18.4 mph N/A   Partly Cloudy
2:56 PM 93.9 °F 100.8 °F 71.1 °F 47% 29.89 in 10.0 mi SW 4.6 mph - N/A   Partly Cloudy
3:56 PM 95.0 °F 101.3 °F 70.0 °F 44% 29.89 in 10.0 mi Variable 3.5 mph - N/A   Partly Cloudy
4:56 PM 93.9 °F 99.1 °F 69.1 °F 44% 29.88 in 10.0 mi WSW 8.1 mph - N/A   Partly Cloudy
5:56 PM 93.9 °F 99.1 °F 69.1 °F 44% 29.88 in 10.0 mi WSW 6.9 mph - N/A   Partly Cloudy
6:56 PM 91.9 °F 95.9 °F 68.0 °F 45% 29.88 in 10.0 mi WSW 6.9 mph - N/A   Clear
7:56 PM 89.1 °F 92.9 °F 68.0 °F 50% 29.89 in 10.0 mi Variable 4.6 mph - N/A   Clear
8:56 PM 84.9 °F 88.2 °F 68.0 °F 57% 29.90 in 10.0 mi Calm Calm - N/A   Clear
9:56 PM 82.0 °F 84.9 °F 68.0 °F 62% 29.92 in 10.0 mi Calm Calm - N/A   Clear
10:56 PM 80.1 °F 82.9 °F 69.1 °F 69% 29.93 in 10.0 mi Calm Calm - N/A   Clear
11:56 PM 80.1 °F 82.9 °F 69.1 °F 69% 29.93 in 10.0 mi South 4.6 mph - N/A   Clear